FW1241 Weather Reports


Display with metric or nautical units.
time (UTC)temp
F
wind
direction
speed
MPH
gust
MPH
rain 1hr
in
rain 24hr
in
rain mn
in
humidity
%
barometer
mb
20260505173605 61 307 1.0 3.0 0.00 0.00 0.00 75 1014.9
20260505172605 61 307 1.0 3.0 0.00 0.00 0.00 76 1014.9
20260505172105 61 294 1.0 3.0 0.00 0.00 0.00 75 1014.9
20260505171104 61 311 1.0 3.0 0.00 0.00 0.00 75 1015.0
20260505170604 61 312 1.0 3.0 0.00 0.00 0.00 76 1014.9
20260505165604 61 305 2.0 3.0 0.00 0.00 0.00 78 1014.8
20260505164605 60 269 0.0 3.0 0.00 0.00 0.00 79 1014.7
20260505163605 60 305 1.0 3.0 0.00 0.00 0.00 80 1014.8
20260505160604 58 322 0.0 3.0 0.00 0.00 0.00 85 1014.7
20260505152604 57 314 0.0 2.0 0.00 0.00 0.00 86 1014.4
20260505152105 57 23 0.0 3.0 0.00 0.00 0.00 86 1014.4
20260505151604 57 290 1.0 3.0 0.00 0.00 0.00 85 1014.3
20260505151105 57 314 0.0 1.0 0.00 0.00 0.00 85 1014.3
20260505123104 56 270 0.0 0.0 0.00 0.00 0.00 84 1012.9
20260505122605 56 270 0.0 0.0 0.00 0.00 0.00 84 1012.9
20260505122105 56 269 0.0 0.0 0.00 0.00 0.00 84 1012.9
20260505121605 56 269 0.0 0.0 0.00 0.00 0.00 84 1012.8
20260505121105 56 269 0.0 0.0 0.00 0.00 0.00 84 1012.7
20260505115105 56 278 0.0 0.0 0.00 0.00 0.00 84 1012.7
20260505114105 56 278 0.0 1.0 0.00 0.00 0.00 83 1012.7
20260505113605 56 278 0.0 0.0 0.00 0.00 0.00 83 1012.7
20260505112604 56 278 0.0 0.0 0.00 0.00 0.00 83 1012.7
20260505112104 56 278 0.0 0.0 0.00 0.00 0.00 83 1012.8
20260505111605 56 274 0.0 0.0 0.00 0.00 0.00 82 1012.8
20260505110105 57 312 0.0 0.0 0.00 0.00 0.00 82 1012.8
20260505101605 57 311 0.0 0.0 0.00 0.00 0.00 82 1012.9
20260505101105 57 311 0.0 0.0 0.00 0.00 0.00 81 1013.0
20260505100605 57 311 0.0 0.0 0.00 0.00 0.00 81 1013.0
20260505095605 57 311 0.0 0.0 0.00 0.00 0.00 82 1013.0
20260505094104 57 310 0.0 0.0 0.00 0.00 0.00 83 1013.0
20260505092104 57 311 0.0 0.0 0.00 0.00 0.00 83 1013.0
20260505091605 57 310 0.0 0.0 0.00 0.00 0.00 83 1013.0
20260505090605 57 310 0.0 0.0 0.00 0.00 0.00 82 1013.1
20260505085605 57 310 0.0 0.0 0.00 0.00 0.00 81 1013.1
20260505085105 58 310 0.0 0.0 0.00 0.00 0.00 80 1013.1
20260505084105 58 310 0.0 0.0 0.00 0.00 0.00 79 1013.1
20260505083605 58 310 0.0 0.0 0.00 0.00 0.00 79 1013.1
20260505080605 58 312 0.0 0.0 0.00 0.00 0.00 79 1013.4
20260505073604 58 285 0.0 0.0 0.00 0.00 0.00 79 1013.1
20260505072605 58 286 0.0 1.0 0.00 0.00 0.00 79 1013.1
20260505071605 58 294 0.0 0.0 0.00 0.00 0.00 79 1013.2
20260505071106 58 294 0.0 0.0 0.00 0.00 0.00 79 1013.2
20260505070605 58 294 0.0 0.0 0.00 0.00 0.00 79 1013.1
20260505064605 58 290 0.0 0.0 0.00 0.00 0.00 78 1013.2
20260505064104 58 284 0.0 0.0 0.00 0.00 0.00 79 1013.2
20260505062604 58 302 0.0 0.0 0.00 0.00 0.00 79 1013.3
20260505061605 58 302 0.0 0.0 0.00 0.00 0.00 78 1013.3
20260505060605 59 302 0.0 0.0 0.00 0.00 0.00 77 1013.3
20260505055105 59 304 0.0 0.0 0.00 0.00 0.00 76 1013.2
20260505053604 59 302 0.0 0.0 0.00 0.00 0.00 75 1013.2
20260505052604 59 317 0.0 1.0 0.00 0.00 0.00 74 1013.2
20260505051605 59 326 0.0 1.0 0.00 0.00 0.00 73 1013.2
20260505051105 59 349 0.0 0.0 0.00 0.00 0.00 73 1013.1
20260505041605 61 343 0.0 0.0 0.00 0.00 0.00 68 1013.2
20260505035105 61 310 0.0 1.0 0.00 0.00 0.00 68 1013.0
20260505034604 61 328 0.0 0.0 0.00 0.00 0.00 68 1012.9
20260505033605 61 329 0.0 0.0 0.00 0.00 0.00 68 1012.8
20260505033105 61 329 0.0 1.0 0.00 0.00 0.00 67 1012.7
20260505032105 61 330 0.0 1.0 0.00 0.00 0.00 67 1012.7
20260505031104 61 330 0.0 0.0 0.00 0.00 0.00 67 1012.6
20260505030105 62 332 0.0 1.0 0.00 0.00 0.00 66 1012.4
20260505025104 62 335 0.0 1.0 0.00 0.00 0.00 63 1012.3
20260505024604 63 334 0.0 0.0 0.00 0.00 0.00 62 1012.2
20260505024105 63 334 0.0 0.0 0.00 0.00 0.00 61 1012.2
20260505021104 64 301 1.0 3.0 0.00 0.00 0.00 56 1012.2
20260505014104 65 325 1.0 3.0 0.00 0.00 0.00 56 1012.5
20260505013104 65 302 0.0 3.0 0.00 0.00 0.00 60 1012.7
20260505012104 64 260 0.0 1.0 0.00 0.00 0.00 60 1012.7
20260505011604 64 324 1.0 3.0 0.00 0.00 0.00 59 1012.8
20260505010105 65 313 1.0 3.0 0.00 0.00 0.00 59 1012.8
20260505005605 65 299 1.0 5.0 0.00 0.00 0.00 58 1012.9
20260505003605 65 324 0.0 5.0 0.00 0.00 0.00 59 1013.0
20260505002605 65 320 0.0 3.0 0.00 0.00 0.00 59 1013.0
20260505000106 64 297 1.0 3.0 0.00 0.00 0.00 59 1013.1
20260504235105 64 308 1.0 5.0 0.00 0.00 0.00 59 1013.2
20260504234604 65 307 1.0 3.0 0.00 0.00 0.00 59 1013.2
20260504233605 64 325 2.0 5.0 0.00 0.00 0.00 59 1013.3
20260504232605 64 308 1.0 3.0 0.00 0.00 0.00 59 1013.4
20260504231105 64 345 0.0 3.0 0.00 0.00 0.00 60 1013.7
20260504230605 64 301 1.0 2.0 0.00 0.00 0.00 60 1013.7
20260504230105 63 318 1.0 2.0 0.00 0.00 0.00 60 1013.7
20260504225604 63 317 1.0 3.0 0.00 0.00 0.00 59 1013.8
20260504225105 63 290 0.0 3.0 0.00 0.00 0.00 59 1013.8
20260504224604 63 308 1.0 3.0 0.00 0.00 0.00 60 1013.9
20260504223605 63 283 0.0 2.0 0.00 0.00 0.00 59 1014.0
20260504223106 63 296 0.0 2.0 0.00 0.00 0.00 59 1014.1
20260504222604 63 300 0.0 2.0 0.00 0.00 0.00 59 1014.2
20260504221604 63 298 0.0 2.0 0.00 0.00 0.00 59 1014.2
20260504221104 63 323 1.0 2.0 0.00 0.00 0.00 60 1014.3
20260504215604 63 103 0.0 1.0 0.00 0.00 0.00 62 1014.5
20260504215104 63 37 0.0 2.0 0.00 0.00 0.00 61 1014.6
20260504214605 63 342 1.0 2.0 0.00 0.00 0.00 59 1014.6
20260504214105 63 291 0.0 2.0 0.00 0.00 0.00 60 1014.7
20260504212605 63 12 0.0 2.0 0.00 0.00 0.00 61 1014.9
20260504205605 62 308 0.0 3.0 0.00 0.00 0.00 62 1015.1
20260504205105 62 307 1.0 2.0 0.00 0.00 0.00 62 1015.3
20260504204605 62 300 1.0 3.0 0.00 0.00 0.00 62 1015.2
20260504204104 62 92 0.0 1.0 0.00 0.00 0.00 63 1015.2
20260504203604 62 88 0.0 2.0 0.00 0.00 0.00 63 1015.2
20260504202605 62 304 1.0 2.0 0.00 0.00 0.00 63 1015.2
20260504202104 62 292 0.0 3.0 0.00 0.00 0.00 63 1015.2
20260504201604 62 330 0.0 3.0 0.00 0.00 0.00 64 1015.2
20260504200104 62 310 1.0 2.0 0.00 0.00 0.00 64 1015.2
20260504195605 61 313 0.0 3.0 0.00 0.00 0.00 66 1015.3
20260504194605 62 294 1.0 3.0 0.00 0.00 0.00 63 1015.3
20260504193604 62 285 1.0 3.0 0.00 0.00 0.00 64 1015.2
20260504192605 61 297 0.0 1.0 0.00 0.00 0.00 66 1015.2
20260504191105 61 113 0.0 3.0 0.00 0.00 0.00 65 1015.3
20260504190605 61 305 0.0 2.0 0.00 0.00 0.00 65 1015.3
20260504190105 60 288 1.0 5.0 0.00 0.00 0.00 65 1015.3
20260504185604 60 310 1.0 3.0 0.00 0.00 0.00 64 1015.4
20260504185105 60 298 0.0 2.0 0.00 0.00 0.00 65 1015.5
20260504184104 60 310 0.0 1.0 0.00 0.00 0.00 67 1015.6
20260504183605 60 313 0.0 2.0 0.00 0.00 0.00 67 1015.6
20260504182605 60 306 0.0 3.0 0.00 0.00 0.00 67 1015.7
20260504182105 60 300 0.0 1.0 0.00 0.00 0.00 68 1015.7
20260504174605 59 114 0.0 1.0 0.00 0.00 0.00 69 1015.4